Change the Weather History Date:

Sunday, January 6, 2013

  Actual Average (KLJF) Record (KLJF)
Temperature  
Mean Temperature 10 °F -  
Max Temperature 19 °F 19 °F 45 °F (1961)
Min Temperature 3 °F 2 °F -25 °F (1988)
Degree Days  
Heating Degree Days 54    
Moisture  
Dew Point 9 °F    
Average Humidity 89    
Maximum Humidity 94    
Minimum Humidity 76    
Precipitation  
Precipitation 0.00 in - - ()
Sea Level Pressure  
Sea Level Pressure 30.11 in    
Wind  
Wind Speed 7 mph (SW)    
Max Wind Speed 14 mph    
Max Gust Speed 18 mph    
Visibility 8 miles    
Events Snow    
Averages and records for this station are not official NWS values.
T = Trace of Precipitation, MM = Missing Value Source: NWS Daily Summary

Daily Weather History Graph

Daily Weather History Graph

Search for Another Location

Airport or City:

Trip Planner

Search our weather history database for the weather conditions in past years. The results will help you decide how hot, cold, wet, or windy it might be!

Date:

Astronomy

Jan. 06, 2013 Rise Set
Actual Time 7:58 AM CST 4:52 PM CST
Civil Twilight 7:24 AM CST 5:25 PM CST
Nautical Twilight 6:47 AM CST 6:02 PM CST
Astronomical Twilight 6:11 AM CST 6:38 PM CST
Moon 2:07 AM CST (1/6) 12:25 PM CST (1/6)
Length of Visible Light 10h 01m
Length of Day
8h 53m
Waning Crescent, 33% of the Moon is Illuminated
Jan 6
Waning Crescent
Jan 11
New
Jan 18
First Quarter
Jan 26
Full
Feb 3
Last Quarter

Hourly Weather History & Observations

Time (CST) Temp. Windchill Dew Point Humidity Pressure Visibility Wind Dir Wind Speed Gust Speed Precip Events Conditions
12:13 AM 8.4 °F -4.9 °F 5.7 °F 89% 30.07 in 10.0 mi West 9.2 mph - N/A   Scattered Clouds
12:33 AM 7.7 °F -5.8 °F 4.8 °F 88% 30.07 in 10.0 mi West 9.2 mph - N/A   Clear
12:54 AM 6.8 °F -4.8 °F 3.6 °F 87% 30.07 in 10.0 mi West 6.9 mph - N/A   Clear
1:13 AM 6.4 °F -5.2 °F 3.0 °F 86% 30.06 in 10.0 mi West 6.9 mph - N/A   Clear
1:33 AM 5.5 °F -5.0 °F 2.1 °F 86% 30.06 in 10.0 mi West 5.8 mph - N/A   Clear
1:54 AM 5.0 °F -6.9 °F 0.9 °F 83% 30.08 in 10.0 mi West 6.9 mph - N/A   Clear
2:13 AM 4.3 °F -2.9 °F -0.2 °F 82% 30.09 in 10.0 mi West 3.5 mph - N/A   Clear
2:33 AM 3.7 °F -5.5 °F -0.6 °F 82% 30.10 in 10.0 mi WNW 4.6 mph - N/A   Scattered Clouds
2:53 AM 7.0 °F - 2.5 °F 82% 30.10 in 10.0 mi Calm Calm - N/A   Overcast
3:13 AM 8.1 °F -5.3 °F 3.9 °F 83% 30.11 in 10.0 mi WNW 9.2 mph - N/A   Overcast
3:33 AM 8.4 °F -2.8 °F 4.6 °F 85% 30.12 in 10.0 mi NW 6.9 mph - N/A   Overcast
4:13 AM 9.9 °F 3.4 °F 6.6 °F 87% 30.11 in 10.0 mi WNW 3.5 mph - N/A   Overcast
4:33 AM 10.8 °F 2.7 °F 7.5 °F 87% 30.11 in 10.0 mi WNW 4.6 mph - N/A   Overcast
4:53 AM 11.8 °F 0.3 °F 8.6 °F 87% 30.10 in 10.0 mi WNW 8.1 mph - N/A   Overcast
5:33 AM 10.2 °F 3.8 °F 7.3 °F 88% 30.13 in 10.0 mi WNW 3.5 mph - N/A   Scattered Clouds
5:53 AM 7.9 °F 1.2 °F 5.2 °F 89% 30.13 in 10.0 mi West 3.5 mph - N/A   Clear
6:13 AM 8.2 °F -1.8 °F 5.9 °F 90% 30.14 in 10.0 mi WNW 5.8 mph - N/A   Clear
6:34 AM 8.2 °F -0.3 °F 6.1 °F 91% 30.15 in 10.0 mi WNW 4.6 mph - N/A   Scattered Clouds
6:53 AM 10.8 °F -1.1 °F 9.0 °F 92% 30.15 in 10.0 mi WNW 8.1 mph - N/A Snow Light Snow
7:13 AM 12.9 °F 3.8 °F 11.3 °F 93% 30.16 in 10.0 mi NW 5.8 mph - N/A   Overcast
7:34 AM 13.1 °F 4.0 °F 11.7 °F 94% 30.17 in 10.0 mi WNW 5.8 mph - N/A   Overcast
7:54 AM 12.9 °F 3.8 °F 11.3 °F 93% 30.17 in 7.0 mi NW 5.8 mph - N/A Snow Light Snow
8:13 AM 13.1 °F 1.8 °F 11.3 °F 93% 30.18 in 7.0 mi NNW 8.1 mph - N/A   Overcast
8:33 AM 13.1 °F 5.4 °F 11.3 °F 93% 30.18 in 7.0 mi NW 4.6 mph - N/A   Overcast
8:53 AM 13.1 °F 2.8 °F 11.3 °F 93% 30.18 in 4.0 mi NW 6.9 mph - N/A Snow Light Snow
9:13 AM 13.5 °F 4.4 °F 11.7 °F 93% 30.18 in 4.0 mi NW 5.8 mph - N/A Snow Light Snow
9:33 AM 13.1 °F - 11.3 °F 93% 30.18 in 3.0 mi Calm Calm - N/A Snow Light Snow
9:53 AM 13.1 °F 7.1 °F 11.3 °F 93% 30.18 in 3.0 mi NW 3.5 mph - N/A Snow Light Snow
10:13 AM 13.1 °F 7.1 °F 11.3 °F 93% 30.20 in 4.0 mi West 3.5 mph - N/A Snow Light Snow
10:33 AM 13.6 °F 6.0 °F 11.8 °F 93% 30.20 in 3.0 mi West 4.6 mph - N/A Snow Light Snow
10:54 AM 13.6 °F - 11.8 °F 93% 30.19 in 2.5 mi Calm Calm - N/A Snow Light Snow
11:13 AM 14.0 °F 8.2 °F 12.2 °F 93% 30.20 in 5.0 mi West 3.5 mph - N/A Snow Light Snow
11:33 AM 14.4 °F 5.5 °F 12.6 °F 93% 30.20 in 5.0 mi SW 5.8 mph - N/A Snow Light Snow
11:53 AM 14.7 °F 7.3 °F 12.9 °F 93% 30.19 in 5.0 mi WSW 4.6 mph - N/A Snow Light Snow
12:13 PM 14.7 °F 9.0 °F 12.9 °F 93% 30.18 in 5.0 mi WSW 3.5 mph - N/A Snow Light Snow
12:33 PM 14.9 °F 7.5 °F 13.1 °F 93% 30.17 in 10.0 mi SSW 4.6 mph - N/A   Mostly Cloudy
12:53 PM 14.9 °F 6.1 °F 13.1 °F 93% 30.16 in 10.0 mi SSW 5.8 mph - N/A   Scattered Clouds
1:13 PM 15.3 °F 6.6 °F 13.1 °F 91% 30.16 in 7.0 mi SSW 5.8 mph - N/A   Scattered Clouds
1:33 PM 15.6 °F 5.9 °F 13.1 °F 90% 30.17 in 10.0 mi SSW 6.9 mph - N/A   Scattered Clouds
1:53 PM 16.3 °F 7.8 °F 12.2 °F 84% 30.15 in 7.0 mi South 5.8 mph - N/A   Clear
2:13 PM 16.7 °F 9.6 °F 11.7 °F 81% 30.15 in 10.0 mi South 4.6 mph - N/A   Clear
2:33 PM 16.3 °F 7.8 °F 10.0 °F 76% 30.15 in 10.0 mi South 5.8 mph - N/A   Clear
2:53 PM 15.8 °F 6.1 °F 10.6 °F 80% 30.15 in 10.0 mi South 6.9 mph - N/A   Clear
3:13 PM 15.6 °F 5.9 °F 10.8 °F 81% 30.14 in 10.0 mi SSE 6.9 mph - N/A   Clear
3:33 PM 14.7 °F 4.8 °F 10.9 °F 85% 30.14 in 10.0 mi SSE 6.9 mph - N/A   Clear
3:54 PM 14.0 °F 2.9 °F 10.9 °F 88% 30.13 in 10.0 mi SSE 8.1 mph - N/A   Clear
4:13 PM 12.2 °F 1.7 °F 9.9 °F 90% 30.14 in 7.0 mi South 6.9 mph - N/A   Clear
4:53 PM 11.3 °F - 9.3 °F 92% 30.13 in 2.5 mi Calm Calm - N/A   Mostly Cloudy
5:13 PM 11.3 °F 3.3 °F 9.1 °F 91% 30.12 in 5.0 mi SE 4.6 mph - N/A   Mostly Cloudy
5:33 PM 10.9 °F 4.7 °F 8.6 °F 90% 30.12 in 5.0 mi SSE 3.5 mph - N/A   Scattered Clouds
6:13 PM 10.6 °F 1.0 °F 8.4 °F 91% 30.11 in 5.0 mi SSE 5.8 mph - N/A   Clear
6:33 PM 10.2 °F 0.6 °F 7.7 °F 90% 30.10 in 5.0 mi SSE 5.8 mph - N/A   Clear
6:53 PM 10.0 °F -1.9 °F 7.9 °F 91% 30.09 in 5.0 mi SE 8.1 mph - N/A   Clear
7:13 PM 10.2 °F -1.7 °F 8.2 °F 92% 30.07 in 7.0 mi SE 8.1 mph - N/A   Clear
7:33 PM 10.4 °F -1.5 °F 8.2 °F 91% 30.06 in 7.0 mi SSE 8.1 mph - N/A   Clear
7:52 PM 10.8 °F -1.1 °F 8.6 °F 91% 30.04 in 7.0 mi SE 8.1 mph - N/A   Clear
8:13 PM 11.3 °F -4.3 °F 9.1 °F 91% 30.01 in 7.0 mi SE 13.8 mph 18.4 mph N/A   Clear
8:33 PM 12.0 °F -2.0 °F 10.0 °F 92% 30.01 in 7.0 mi SE 11.5 mph - N/A   Clear
9:13 PM 12.9 °F -0.9 °F 10.9 °F 92% 29.98 in 10.0 mi SE 11.5 mph - N/A   Clear
9:33 PM 13.6 °F 0.7 °F 11.7 °F 92% 29.96 in 10.0 mi SSE 10.4 mph - N/A   Clear
9:53 PM 14.4 °F 2.4 °F 12.6 °F 93% 29.95 in 10.0 mi SSE 9.2 mph - N/A   Clear
10:13 PM 15.4 °F 3.0 °F 13.6 °F 93% 29.94 in 10.0 mi SSE 10.4 mph 17.3 mph N/A   Clear
10:33 PM 16.5 °F 2.4 °F 14.9 °F 93% 29.93 in 10.0 mi SSE 13.8 mph 18.4 mph N/A   Clear
10:53 PM 16.7 °F 2.6 °F 14.9 °F 93% 29.91 in 10.0 mi SSE 13.8 mph - N/A   Clear
11:33 PM 18.7 °F 6.3 °F 14.9 °F 85% 29.89 in 10.0 mi SSE 11.5 mph 17.3 mph N/A   Clear
11:53 PM 19.2 °F 7.0 °F 14.9 °F 83% 29.88 in 10.0 mi SSE 11.5 mph - N/A   Clear